MST,Max TemperatureF,Mean TemperatureF,Min TemperatureF,Max Dew PointF,MeanDew PointF,Min DewpointF,Max Humidity, Mean Humidity, Min Humidity, Max Sea Level PressureIn, Mean Sea Level PressureIn, Min Sea Level PressureIn, Max VisibilityMiles, Mean VisibilityMiles, Min VisibilityMiles, Max Wind SpeedMPH, Mean Wind SpeedMPH, Max Gust SpeedMPH,PrecipitationIn, CloudCover, Events, WindDirDegrees
2013-12-1,61,43,24,19,16,9,63,39,14,30.15,30.00,29.81,10,10,10,30,12,37,0.00,0,,281
2013-12-2,65,52,38,25,20,17,59,38,16,29.81,29.65,29.47,10,10,10,28,13,35,0.00,0,,266
2013-12-3,65,45,24,24,19,12,68,43,17,29.67,29.50,29.32,10,10,10,31,10,37,0.00,1,,357
2013-12-4,25,17,9,13,7,-2,80,69,58,30.26,29.87,29.64,10,6,1,23,12,27,0.02,8,Snow,68
2013-12-5,14,8,2,0,-4,-7,79,63,46,30.32,30.25,30.09,10,10,10,16,7,18,0.00,6,,108
2013-12-6,13,5,-3,4,-1,-9,79,69,58,30.48,30.33,30.14,10,9,2,14,6,16,T,7,Snow,107
2013-12-7,15,10,5,7,3,0,80,74,67,30.41,30.11,29.75,10,6,2,12,6,13,T,7,Snow,47
2013-12-8,25,14,3,8,4,-2,88,69,50,30.26,29.92,29.70,10,8,1,13,5,15,T,4,Snow,41
2013-12-9,28,12,-4,5,-1,-8,80,56,32,30.38,30.29,30.10,10,9,4,13,2,14,0.00,0,,130
2013-12-10,52,27,1,14,4,-5,87,51,15,30.34,30.17,29.98,10,10,9,36,14,43,0.00,0,,272
2013-12-11,39,25,11,15,10,6,76,56,35,30.57,30.45,30.32,10,10,10,14,4,15,0.00,0,,77
2013-12-12,61,34,7,15,9,3,88,50,11,30.43,30.22,29.95,10,10,8,12,3,15,0.00,0,,106
2013-12-13,55,34,12,16,11,5,73,44,15,30.11,29.92,29.83,10,10,10,23,9,30,0.00,0,,35
2013-12-14,46,32,17,18,12,6,68,45,21,30.36,30.26,30.14,10,10,10,13,5,17,0.00,1,,317
2013-12-15,62,39,16,18,13,8,73,44,14,30.33,30.19,30.03,10,10,10,36,6,43,0.00,0,,271
2013-12-16,67,47,26,18,14,7,50,31,12,30.24,30.12,30.00,10,10,10,29,11,34,0.00,0,,291
2013-12-17,58,39,20,32,14,9,68,44,19,30.39,30.26,30.11,10,10,2,12,6,14,0.00,0,,310
2013-12-18,68,47,25,18,14,5,63,36,8,30.07,29.83,29.61,10,10,10,25,11,32,0.00,0,,263
2013-12-19,64,46,28,23,17,12,69,42,14,29.84,29.62,29.44,10,10,6,44,9,50,0.00,1,,53
2013-12-20,35,28,20,23,19,13,88,75,61,29.86,29.77,29.66,10,10,8,17,6,19,0.00,6,,106
2013-12-21,39,28,17,20,14,11,74,58,41,29.94,29.69,29.56,10,10,9,20,7,23,0.00,5,,44
2013-12-22,42,31,20,20,14,6,88,55,22,30.17,30.08,29.95,10,9,2,18,6,25,T,3,Snow,238
2013-12-23,35,25,14,18,15,11,88,64,39,30.51,30.35,30.18,10,10,10,23,6,28,0.00,2,,79
2013-12-24,62,40,17,27,20,11,74,46,17,30.32,30.11,29.96,10,8,0,43,19,49,T,1,Rain,324
2013-12-25,44,28,11,17,9,5,83,54,24,30.50,30.42,30.31,10,10,10,12,5,14,0.00,0,,296
2013-12-26,56,34,12,11,6,3,67,41,14,30.40,30.33,30.27,10,10,10,16,5,20,0.00,0,,193
2013-12-27,58,36,13,18,10,1,67,44,20,30.41,30.28,30.12,10,10,10,8,3,11,0.00,0,,244
2013-12-28,65,41,16,24,16,7,68,42,16,30.12,29.97,29.73,10,10,9,30,10,35,T,2,,341
2013-12-29,33,23,13,22,16,10,92,75,58,30.35,30.20,30.09,10,9,1,30,8,37,0.01,5,Snow,91
2013-12-30,48,31,13,20,15,10,88,58,28,30.36,30.21,30.07,10,10,2,15,4,17,0.00,0,,177
2013-12-31,63,39,15,20,15,9,74,45,16,30.16,30.04,29.90,10,10,10,24,6,29,0.00,0,,295